Location: ????????
(55.4000°N, 39.1167°E)
Time: 07:38:45
(UTC+00:00)

CENTAUR R/B - Pass Details

Date: 19 May 2025
Orbit: 645 x 1537 km, 63.4° (Epoch: 15 June)

Event Time Altitude Azimuth Distance (km) Brightness Sun altitude
Rises 19:34:39 0° 302° (WNW) 3,900 6.7 -11.4°
Reaches altitude 10° 19:37:09 10° 306° (NW) 3,061 6.1 -11.5°
Maximum altitude 19:44:40 66° 28° (NNE) 1,445 3.5 -12.0°
Drops below altitude 10° 19:53:40 10° 110° (ESE) 3,624 5.1 -12.4°
Sets 19:56:52 0° 114° (ESE) 4,656 5.6 -12.6°
